BRA150 ENOV-ENSG

Flight info

Callsign BRA150
Flight time 0h 21m
Altitude 13000
Route EVNAN
Aircraft B736/M-SDE2E3FGHIRWXY/LB1

Departure

Time 2026-04-23 12:56
Airport Ørsta-Volda Airport, Hovden (ENOV)

Arrival

Time 2026-04-23 13:17
Airport Sogndal Airport, Haukåsen (ENSG)
Time Latitude Longitude Altitude Speed Heading
2026-04-23 12:40 62.18068 6.07954 258 ft 0 kts 58°
2026-04-23 12:50 62.18068 6.07955 258 ft 1 kts 62°
2026-04-23 12:50 62.18068 6.07970 258 ft 0 kts 72°
2026-04-23 12:50 62.18070 6.07976 258 ft 0 kts 61°
2026-04-23 12:50 62.18071 6.07978 258 ft 0 kts 56°
2026-04-23 12:51 62.18086 6.07991 258 ft 0 kts 352°
2026-04-23 12:54 62.18127 6.07944 258 ft 8 kts 327°
2026-04-23 12:54 62.18132 6.07897 258 ft 3 kts 246°
2026-04-23 12:55 62.18136 6.07915 258 ft 0 kts 243°
2026-04-23 12:55 62.18145 6.07953 258 ft 0 kts 248°
2026-04-23 12:55 62.18142 6.07939 258 ft 16 kts 244°
2026-04-23 12:55 62.17863 6.06876 328 ft 135 kts 242°
2026-04-23 12:56 62.17211 6.04981 1336 ft 179 kts 225°
2026-04-23 12:56 62.16478 6.02665 2621 ft 205 kts 251°
2026-04-23 12:56 62.16537 5.99564 3238 ft 230 kts 296°
2026-04-23 12:56 62.17657 5.96705 3683 ft 264 kts 314°
2026-04-23 12:57 62.18828 5.94074 5863 ft 217 kts 311°
2026-04-23 12:57 62.19612 5.91760 8242 ft 175 kts 303°
2026-04-23 12:57 62.20075 5.89324 9471 ft 190 kts 291°
2026-04-23 12:57 62.20322 5.86082 9338 ft 257 kts 279°
2026-04-23 12:58 62.20259 5.81731 9184 ft 318 kts 267°
2026-04-23 12:58 62.19695 5.77162 10702 ft 307 kts 251°
2026-04-23 12:58 62.18621 5.73576 13135 ft 271 kts 232°
2026-04-23 12:58 62.17143 5.71219 14802 ft 271 kts 211°
2026-04-23 12:59 62.15219 5.69964 15042 ft 315 kts 191°
2026-04-23 12:59 62.12814 5.70026 14665 ft 375 kts 173°
2026-04-23 12:59 62.10274 5.71769 15137 ft 394 kts 154°
2026-04-23 12:59 62.08152 5.75113 17069 ft 362 kts 133°
2026-04-23 13:00 62.06875 5.79434 19230 ft 335 kts 110°
2026-04-23 13:00 62.06476 5.84296 20076 ft 342 kts 88°
2026-04-23 13:00 62.06462 5.89571 20118 ft 371 kts 99°
2026-04-23 13:00 62.05490 5.94913 19720 ft 408 kts 124°
2026-04-23 13:01 62.03615 5.99675 19551 ft 424 kts 133°
2026-04-23 13:01 62.01443 6.03949 19432 ft 424 kts 149°
2026-04-23 13:01 61.98745 6.06260 19439 ft 418 kts 171°
2026-04-23 13:01 61.95904 6.07616 19412 ft 422 kts 160°
2026-04-23 13:02 61.93432 6.10953 19437 ft 425 kts 139°
2026-04-23 13:02 61.91401 6.15515 19432 ft 427 kts 132°
2026-04-23 13:02 61.89429 6.20273 19430 ft 428 kts 133°
2026-04-23 13:02 61.87415 6.24936 19423 ft 428 kts 134°
2026-04-23 13:03 61.85337 6.29459 19418 ft 425 kts 136°
2026-04-23 13:03 61.83255 6.33777 19069 ft 414 kts 137°
2026-04-23 13:03 61.81197 6.37910 18257 ft 413 kts 138°
2026-04-23 13:03 61.79097 6.42044 17741 ft 408 kts 138°
2026-04-23 13:04 61.77003 6.46138 17598 ft 410 kts 138°
2026-04-23 13:04 61.74926 6.50279 17471 ft 413 kts 136°
2026-04-23 13:04 61.72927 6.54631 17432 ft 410 kts 134°
2026-04-23 13:04 61.70999 6.59001 17393 ft 407 kts 134°
2026-04-23 13:05 61.69074 6.63399 17401 ft 407 kts 134°
2026-04-23 13:05 61.67120 6.67706 17384 ft 406 kts 139°
2026-04-23 13:05 61.64740 6.70793 17404 ft 401 kts 160°
2026-04-23 13:05 61.62093 6.72351 17375 ft 388 kts 174°
2026-04-23 13:06 61.56999 6.72906 17109 ft 341 kts 181°
2026-04-23 13:06 61.54703 6.73019 16974 ft 323 kts 182°
2026-04-23 13:06 61.52505 6.73126 16736 ft 316 kts 182°
2026-04-23 13:07 61.50287 6.73242 16315 ft 315 kts 181°
2026-04-23 13:07 61.48091 6.73368 15792 ft 316 kts 181°
2026-04-23 13:07 61.45887 6.73503 15342 ft 317 kts 181°
2026-04-23 13:07 61.43710 6.73646 14954 ft 316 kts 181°
2026-04-23 13:08 61.41516 6.73797 14564 ft 315 kts 181°
2026-04-23 13:08 61.39320 6.73949 14167 ft 315 kts 181°
2026-04-23 13:08 61.37137 6.74094 13759 ft 312 kts 181°
2026-04-23 13:08 61.35007 6.74245 13376 ft 302 kts 181°
2026-04-23 13:09 61.33103 6.74385 12959 ft 298 kts 181°
2026-04-23 13:09 61.31027 6.74535 12432 ft 298 kts 181°
2026-04-23 13:09 61.28956 6.74680 11877 ft 298 kts 181°
2026-04-23 13:09 61.26892 6.74824 11363 ft 296 kts 181°
2026-04-23 13:10 61.24844 6.74966 10813 ft 294 kts 180°
2026-04-23 13:10 61.22792 6.75111 10233 ft 294 kts 180°
2026-04-23 13:10 61.20758 6.75314 9544 ft 296 kts 174°
2026-04-23 13:10 61.18788 6.76725 8645 ft 303 kts 139°
2026-04-23 13:11 61.17371 6.79908 7898 ft 301 kts 125°
2026-04-23 13:11 61.16024 6.83219 7191 ft 302 kts 131°
2026-04-23 13:11 61.14426 6.86101 6546 ft 303 kts 139°
2026-04-23 13:11 61.12789 6.88659 6343 ft 284 kts 139°
2026-04-23 13:12 61.11404 6.91305 6225 ft 261 kts 124°
2026-04-23 13:12 61.10566 6.94578 5584 ft 260 kts 102°
2026-04-23 13:12 61.10503 6.98307 4730 ft 266 kts 77°
2026-04-23 13:12 61.11086 7.01953 4052 ft 266 kts 66°
2026-04-23 13:13 61.11771 7.05418 3723 ft 254 kts 65°
2026-04-23 13:13 61.12468 7.08693 3477 ft 242 kts 64°
2026-04-23 13:13 61.13161 7.11810 3075 ft 236 kts 63°
2026-04-23 13:13 61.13907 7.14808 2598 ft 235 kts 61°
2026-04-23 13:14 61.14645 7.17718 2519 ft 214 kts 59°
2026-04-23 13:14 61.15293 7.20261 2344 ft 192 kts 61°
2026-04-23 13:14 61.15634 7.22818 2079 ft 181 kts 92°
2026-04-23 13:14 61.15371 7.25327 1742 ft 174 kts 111°
2026-04-23 13:15 61.15147 7.27734 2071 ft 169 kts 75°
2026-04-23 13:15 61.15882 7.29165 2191 ft 140 kts 350°
2026-04-23 13:15 61.16387 7.27878 2195 ft 130 kts 276°
2026-04-23 13:15 61.16521 7.26148 2551 ft 121 kts 285°
2026-04-23 13:16 61.16793 7.24505 2721 ft 123 kts 285°
2026-04-23 13:16 61.17011 7.22791 2947 ft 117 kts 279°
2026-04-23 13:16 61.17060 7.21156 2763 ft 115 kts 267°
2026-04-23 13:16 61.16915 7.19510 2506 ft 121 kts 259°
2026-04-23 13:17 61.16628 7.17935 2109 ft 110 kts 250°
2026-04-23 13:17 61.16302 7.16454 1915 ft 125 kts 249°
2026-04-23 13:17 61.15909 7.14855 1735 ft 123 kts 245°
2026-04-23 13:17 61.15584 7.13635 1636 ft 48 kts 239°
2026-04-23 13:18 61.15521 7.13417 1635 ft 1 kts 187°
2026-04-23 13:18 61.15523 7.13441 1635 ft 6 kts 61°
2026-04-23 13:18 61.15581 7.13629 1636 ft 23 kts 58°
2026-04-23 13:18 61.15647 7.13830 1633 ft 7 kts 15°
2026-04-23 13:19 61.15673 7.13815 1634 ft 3 kts 335°
2026-04-23 13:19 61.15693 7.13793 1635 ft 3 kts 331°
2026-04-23 13:19 61.15712 7.13772 1637 ft 3 kts 326°
2026-04-23 13:19 61.15713 7.13734 1637 ft 2 kts 244°
2026-04-23 13:20 61.15712 7.13731 1637 ft 0 kts 238°